Regional Weather Roundup
Issued by NWS

Home | Current Version | Previous Version | Text Only | Print | Product List | Glossary On
Versions: 1 2 3 4 5 6 7 8 9 10 11 12 13 14 15 16 17 18 19 20 21 22 23 24 25 26 27 28 29 30 31 32 33 34 35 36 37 38 39 40 41 42 43 44 45 46 47 48 49 50
000
ASUS44 KOUN 200410
RWROK

WEATHER ROUNDUP FOR OKLAHOMA
NATIONAL WEATHER SERVICE NORMAN OK
1000 PM CST SUN NOV 19 2017

NOTE: "FAIR" INDICATES FEW OR NO CLOUDS BELOW 12,000 FEET WITH NO
      SIGNIFICANT WEATHER AND/OR OBSTRUCTIONS TO VISIBILITY.

OKZ001>007-009>012-014-015-017-200500-
NORTHWEST OKLAHOMA AND THE PANHANDLE

CITY           SKY/WX    TMP DP  RH WIND       PRES   REMARKS
GAGE           CLOUDY    45  17  32 S17       30.08S
GUYMON         CLEAR     41  20  43 S13       30.02F WCI  34
ENID/WOODRING  CLEAR     34  28  80 S5        30.12S WCI  30
$$

OKZ016-021>023-033>039-044-045-200500-
SOUTHWEST OKLAHOMA

CITY           SKY/WX    TMP DP  RH WIND       PRES   REMARKS
LAWTON/REGL    CLEAR     42  26  53 S3        30.19R
LAWTON/FT SILL CLEAR     45  27  50 SW5       30.17R
FREDERICK      CLOUDY    47  25  42 S10       30.15S
CLINTON        CLOUDY    43  21  41 S13       30.14S
HOBART         CLOUDY    41  26  55 S12       30.16S WCI  34
ALTUS AFB      CLOUDY    37  20  49 SE6       30.16F WCI  33
$$

OKZ018>020-024>031-200500-
CENTRAL OKLAHOMA

CITY           SKY/WX    TMP DP  RH WIND       PRES   REMARKS
OKLAHOMA CITY  CLEAR     39  26  59 S8        30.16S WCI  33
OKC/WILEY POST CLEAR     45  26  47 S10       30.16S
OKC/TINKER AFB CLEAR     42  25  52 S10       30.16F
STILLWATER     CLEAR     41  25  53 S7        30.15S
GUTHRIE        CLEAR     44  26  49 S8        30.16S
$$

OKZ008-013-054>072-200500-
NORTHEAST OKLAHOMA

CITY           SKY/WX    TMP DP  RH WIND       PRES   REMARKS
TULSA          CLEAR     47  27  45 S10       30.18S
TULSA/JONES    CLEAR     38  28  67 CALM      30.19S
PONCA CITY     CLEAR     47  25  42 S7        30.12F
BARTLESVILLE   CLEAR     34  27  75 S3        30.16F
MUSKOGEE       CLEAR     41  28  60 S6        30.22S
$$

OKZ032-040>043-046>053-073>077-200500-
SOUTH CENTRAL/SOUTHEAST OKLAHOMA

CITY           SKY/WX    TMP DP  RH WIND       PRES   REMARKS
ARDMORE/DWNTWN CLEAR     41  27  56 CALM      30.22S
MCALESTER      CLEAR     38  30  73 CALM      30.22R
$$





USA.gov is the U.S. government's official web portal to all federal, state and local government web resources and services.